Weather History for Big Delta, AK

Change the Weather History Date:

Tuesday, March 18, 2014

  Actual Average Record
Temperature  
Mean Temperature 20 °F -  
Max Temperature 28 °F 24 °F 43 °F (1998)
Min Temperature 12 °F 3 °F -16 °F (2001)
Degree Days  
Heating Degree Days 45    
Moisture  
Dew Point 10 °F    
Average Humidity 59    
Maximum Humidity 88    
Minimum Humidity 43    
Precipitation  
Precipitation 0.02 in - - ()
Sea Level Pressure  
Sea Level Pressure 29.92 in    
Wind  
Wind Speed 6 mph (West)    
Max Wind Speed 15 mph    
Max Gust Speed -    
Visibility 10 miles    
Events Snow    
Averages and records for this station are not official NWS values.
T = Trace of Precipitation, MM = Missing Value Source: NWS Daily Summary

Daily Weather History Graph

Daily Weather History Graph

Search for Another Location

Airport:

Trip Planner

Search our weather history database for the weather conditions in past years. The results will help you decide how hot, cold, wet, or windy it might be!

Date:

Astronomy

Mar. 18, 2014 Rise Set
Actual Time 7:49 AM AKDT 7:53 PM AKDT
Civil Twilight 7:02 AM AKDT 8:40 PM AKDT
Nautical Twilight 6:05 AM AKDT 9:38 PM AKDT
Astronomical Twilight 5:01 AM AKDT 10:43 PM AKDT
Moon 11:20 PM AKDT (3/18) 7:58 AM AKDT (3/18)
Length of Visible Light 13h 38m
Length of Day
12h 03m
Waning Gibbous, 95% of the Moon is Illuminated
Mar 18
Waning Gibbous
Mar 23
Last Quarter
Mar 30
New
Apr 7
First Quarter
Apr 14
Full

Hourly Weather History & Observations

Time (AKDT) Temp. Windchill Dew Point Humidity Pressure Visibility Wind Dir Wind Speed Gust Speed Precip Events Conditions
12:53 AM 19.9 °F 12.1 °F 5.0 °F 52% 29.73 in 10.0 mi ESE 5.8 mph - N/A   Clear
1:53 AM 19.9 °F 11.1 °F 3.9 °F 50% 29.73 in 10.0 mi Variable 6.9 mph - N/A   Mostly Cloudy
2:53 AM 19.0 °F 13.9 °F 3.9 °F 52% 29.76 in 10.0 mi South 3.5 mph - N/A   Mostly Cloudy
3:53 AM 16.0 °F - 3.9 °F 59% 29.77 in 10.0 mi Calm Calm - N/A   Scattered Clouds
4:53 AM 12.9 °F - 3.9 °F 67% 29.79 in 10.0 mi Calm Calm - N/A   Mostly Cloudy
5:53 AM 15.1 °F - 3.9 °F 61% 29.80 in 10.0 mi Calm Calm - N/A   Overcast
6:53 AM 14.0 °F - 5.0 °F 67% 29.82 in 10.0 mi Calm Calm - N/A   Mostly Cloudy
7:53 AM 12.9 °F 3.8 °F 3.9 °F 67% 29.85 in 10.0 mi South 5.8 mph - N/A   Overcast
8:53 AM 17.1 °F - 8.1 °F 68% 29.86 in 10.0 mi Calm Calm - N/A   Overcast
9:53 AM 18.0 °F 12.7 °F 6.1 °F 60% 29.88 in 10.0 mi West 3.5 mph - N/A   Overcast
10:53 AM 19.9 °F 12.1 °F 8.1 °F 60% 29.90 in 10.0 mi West 5.8 mph - N/A   Overcast
11:53 AM 21.9 °F 15.7 °F 8.1 °F 55% 29.91 in 10.0 mi WNW 4.6 mph - N/A   Overcast
12:53 PM 25.0 °F 17.1 °F 8.1 °F 49% 29.93 in 10.0 mi WNW 6.9 mph - N/A   Overcast
1:53 PM 28.0 °F 18.6 °F 9.0 °F 45% 29.94 in 10.0 mi NW 10.4 mph - N/A   Mostly Cloudy
2:53 PM 28.9 °F 22.8 °F 12.0 °F 49% 29.95 in 10.0 mi NW 5.8 mph - N/A   Overcast
3:53 PM 28.9 °F 19.2 °F 15.1 °F 56% 29.96 in 10.0 mi NW 11.5 mph - N/A   Overcast
4:53 PM 28.0 °F 17.5 °F 17.1 °F 63% 29.98 in 10.0 mi NW 12.7 mph - N/A   Overcast
5:42 PM 28.0 °F 16.5 °F 17.1 °F 63% 29.90 in 10.0 mi West 15.0 mph - N/A   Overcast
5:53 PM 28.0 °F 17.5 °F 17.1 °F 63% 30.00 in 10.0 mi West 12.7 mph - N/A   Overcast
6:07 PM 28.0 °F 18.1 °F 17.1 °F 63% 29.91 in 10.0 mi WNW 11.5 mph - N/A   Overcast
6:53 PM 27.0 °F 18.0 °F 16.0 °F 63% 30.02 in 10.0 mi WNW 9.2 mph - N/A   Overcast
7:53 PM 26.1 °F 17.6 °F 14.0 °F 60% 30.04 in 10.0 mi West 8.1 mph - N/A   Overcast
8:53 PM 25.0 °F 16.3 °F 16.0 °F 69% 30.06 in 10.0 mi WSW 8.1 mph - N/A   Overcast
9:53 PM 25.0 °F 16.3 °F 15.1 °F 66% 30.08 in 10.0 mi West 8.1 mph - N/A   Overcast
10:53 PM 24.1 °F 13.7 °F 17.1 °F 75% 30.10 in 10.0 mi West 10.4 mph - N/A   Overcast
11:53 PM 23.0 °F 13.9 °F 19.9 °F 88% 30.12 in 2.5 mi WNW 8.1 mph - 0.00 in Snow Light Snow